Location: ????????
(55.0559°N, 39.1270°E)
Time: 19:09:37
(UTC+00:00)

Cosmos 1025 Rocket - Pass Details

Date: 15 November 2025
Orbit: 586 x 610 km, 82.5° (Epoch: 14 December)

Event Time Altitude Azimuth Distance (km) Brightness Sun altitude
Rises 04:03:57 0° 209° (SSW) 2,866 6.4 -7.4°
Reaches altitude 10° 04:06:15 10° 216° (SW) 1,967 5.5 -7.1°
Maximum altitude 04:10:25 43° 289° (WNW) 865 3.4 -6.6°
Drops below altitude 10° 04:14:36 10° 2° (N) 1,979 5.4 -6.0°
Sets 04:16:56 0° 9° (N) 2,886 6.3 -5.7°
